Weather Roundup
Issued by NWS Springfield, MO

Home | Current Version | Previous Version | Text Only | Print | Product List | Glossary On
Versions: 1 2 3 4 5 6 7 8 9 10 11 12 13 14 15 16 17 18 19 20 21 22 23 24 25 26 27 28 29 30 31 32 33 34 35 36 37 38 39 40 41 42 43 44 45 46 47 48 49 50
000
NZUS99 KSGF 231757
HRRSGF

HOURLY WEATHER
NATIONAL WEATHER SERVICE SPRINGFIELD MO
100 PM CDT TUE MAY 23 2017

......SGF CWA......

CITY           SKY/WX    TMP DP  RH WIND       PRES   REMARKS
SPRINGFIELD    CLOUDY    66  56  70 NW16      29.82S
6HR MIN TEMP:  59; 6HR MAX TEMP:  68;

JOPLIN         CLOUDY    62  55  77 NW9       29.87F
6HR MIN TEMP:  60; 6HR MAX TEMP:  67;

WEST PLAINS    PTSUNNY   71  58  63 NE6       29.78F
6HR MIN TEMP:  59; 6HR MAX TEMP:  71; 6HR PCP: TRACE;

ROLLA          CLOUDY    61  58  90 NW8       29.79R
6HR MIN TEMP:  57; 6HR MAX TEMP:  62; 6HR PCP:  0.09;

BRANSON        CLOUDY    68  55  64 MISG      29.82F

......SURROUNDING SGF CWA......

CITY           SKY/WX    TMP DP  RH WIND       PRES   REMARKS
CHANUTE        PTSUNNY   67  47  48 N10       29.89F
PARSONS        CLOUDY    65  48  54 N12       29.90F
COFFEYVILLE    CLOUDY    64  53  67 N13       29.90F
EMPORIA        MOSUNNY   66  45  46 N12G24    29.90F
HARRISON AR    CLOUDY    68  55  63 NW8       29.81F

......KANSAS AND MISSOURI......

CITY           SKY/WX    TMP DP  RH WIND       PRES   REMARKS
KANSAS CTY INT PTSUNNY   63  48  58 NW10      29.85F
SEDALIA        PTSUNNY   64  55  72 NW14      29.83F
ST JOSEPH      PTSUNNY   63  48  58 NW13      29.85F
ST LOUIS       CLOUDY    67  59  75 N5        29.76F
WICHITA        MOSUNNY   68  44  42 N20G30    29.93F
TOPEKA         SUNNY     66  48  52 N13G21    29.87F
OLATHE         CLOUDY    61  46  57 NW9       29.86F

......TENNESSEE......

CITY           SKY/WX    TMP DP  RH WIND       PRES   REMARKS
MEMPHIS        NOT AVBL
NASHVILLE      PTSUNNY   78  58  49 VRB3      29.72F

......ARKANSAS.......

CITY           SKY/WX    TMP DP  RH WIND       PRES   REMARKS
FAYETTEVILLE   PTSUNNY   69  57  65 NW8       29.84S
FT SMITH       MOSUNNY   72  54  53 NW5G17    29.83F
LITTLE ROCK    PTSUNNY   76  60  57 NW9       29.78F

......OKLAHOMA.......

CITY           SKY/WX    TMP DP  RH WIND       PRES   REMARKS
TULSA          CLOUDY    64  52  64 NW14      29.90S
PONCA CITY     CLOUDY    67  47  48 N10G22    29.94F
MCALESTER      CLOUDY    71  57  61 N9        29.89F
OKLAHOMA CITY  CLOUDY    57  52  83 N18       29.97R

......IOWA............

CITY           SKY/WX    TMP DP  RH WIND       PRES   REMARKS
DES MOINES     NOT AVBL
QUAD CITIES      N/A    N/A N/A N/A MISG      29.74F

......ILLINOIS........

CITY           SKY/WX    TMP DP  RH WIND       PRES   REMARKS
QUINCY         NOT AVBL
CHICAGO        CLOUDY    62  52  69 SW3       29.75F



USA.gov is the U.S. government's official web portal to all federal, state and local government web resources and services.